Warner Robins, GA

11:42 PM EDT on May 22, 2017 (GMT -0400)
Robins Air Force Base

Weather History for KWRB - September, 2013

Change the Weather History Date:

Saturday, September 7, 2013

  Actual Average Record
Temperature  
Mean Temperature 78 °F -  
Max Temperature 88 °F 84 °F 94 °F (2010)
Min Temperature 67 °F 64 °F 55 °F (1997)
Cooling Degree Days 12    
Growing Degree Days 28 (Base 50)    
Moisture  
Dew Point 68 °F    
Average Humidity 77    
Maximum Humidity 96    
Minimum Humidity 47    
Precipitation  
Precipitation 0.00 in - - ()
Sea Level Pressure  
Sea Level Pressure 30.05 in    
Wind  
Wind Speed 2 mph (NNE)    
Max Wind Speed 6 mph    
Max Gust Speed -    
Visibility 10 miles    
Events      
Averages and records for this station are not official NWS values.
T = Trace of Precipitation, MM = Missing Value Source: NWS Daily Summary

Daily Weather History Graph

Daily Weather History Graph

Search for Another Location

Airport or City:

Trip Planner

Search our weather history database for the weather conditions in past years. The results will help you decide how hot, cold, wet, or windy it might be!

Date:

Astronomy

Sep. 07, 2013 Rise Set
Actual Time 7:13 AM EDT 7:50 PM EDT
Civil Twilight 6:48 AM EDT 8:15 PM EDT
Nautical Twilight 6:18 AM EDT 8:44 PM EDT
Astronomical Twilight 5:49 AM EDT 9:14 PM EDT
Moon 9:16 AM EDT (9/7) 9:00 PM EDT (9/7)
Length of Visible Light 13h 27m
Length of Day
12h 37m
Waxing Crescent, 5% of the Moon is Illuminated
Sep 7
Waxing Crescent
Sep 12
First Quarter
Sep 19
Full
Sep 26
Last Quarter
Oct 4
New

Hourly Weather History & Observations

Time (EDT) Temp. Heat Index Dew Point Humidity Pressure Visibility Wind Dir Wind Speed Gust Speed Precip Events Conditions
12:58 AM 71.4 °F - 67.8 °F 88% 30.07 in 10.0 mi Calm Calm - N/A   Clear
1:58 AM 69.8 °F - 67.8 °F 93% 30.07 in 10.0 mi North 2.3 mph - N/A   Clear
2:58 AM 69.3 °F - 67.1 °F 93% 30.06 in 10.0 mi North 2.3 mph - N/A   Clear
3:58 AM 68.5 °F - 66.7 °F 94% 30.07 in 10.0 mi North 2.3 mph - N/A   Clear
4:58 AM 68.5 °F - 66.2 °F 92% 30.06 in 10.0 mi Calm Calm - N/A   Clear
5:58 AM 67.3 °F - 65.8 °F 95% 30.06 in 10.0 mi Calm Calm - N/A   Clear
6:58 AM 67.1 °F - 65.8 °F 96% 30.08 in 10.0 mi NNE 2.3 mph - N/A   Clear
7:58 AM 67.5 °F - 66.0 °F 95% 30.09 in 10.0 mi NNW 4.6 mph - N/A   Partly Cloudy
8:58 AM 71.8 °F - 67.8 °F 87% 30.09 in 10.0 mi North 3.5 mph - N/A   Clear
9:58 AM 77.0 °F - 68.2 °F 74% 30.10 in 10.0 mi ESE 4.6 mph - N/A   Clear
10:58 AM 80.4 °F 83.4 °F 69.1 °F 68% 30.11 in 10.0 mi Variable 3.5 mph - N/A   Clear
11:58 AM 82.9 °F 86.7 °F 69.6 °F 64% 30.10 in 10.0 mi NNE 4.6 mph - N/A   Clear
12:58 PM 86.2 °F 89.1 °F 67.1 °F 53% 30.09 in 10.0 mi East 3.5 mph - N/A   Scattered Clouds
1:58 PM 85.8 °F 89.1 °F 67.8 °F 55% 30.08 in 10.0 mi North 5.8 mph - N/A   Partly Cloudy
2:58 PM 87.3 °F 89.5 °F 65.8 °F 49% 30.06 in 10.0 mi Variable 2.3 mph - N/A   Clear
3:58 PM 88.0 °F 90.0 °F 65.7 °F 47% 30.03 in 10.0 mi NNE 4.6 mph - N/A   Clear
4:58 PM 87.8 °F 90.4 °F 66.2 °F 49% 30.02 in 10.0 mi Variable 3.5 mph - N/A   Clear
5:58 PM 87.3 °F 89.5 °F 66.0 °F 49% 30.01 in 10.0 mi ENE 3.5 mph - N/A   Clear
6:58 PM 84.0 °F 87.6 °F 68.5 °F 60% 30.00 in 10.0 mi East 4.6 mph - N/A   Clear
7:52 PM 77.0 °F - 69.8 °F 78% 30.00 in 10.0 mi Calm Calm - N/A   Light Drizzle
7:58 PM 76.8 °F - 70.7 °F 81% 30.00 in 10.0 mi Calm Calm - 0.00 in   Light Drizzle
8:14 PM 77.0 °F - 69.8 °F 78% 30.00 in 10.0 mi Calm Calm - N/A   Clear
8:58 PM 74.5 °F - 71.1 °F 89% 30.01 in 10.0 mi Calm Calm - 0.00 in   Clear
9:58 PM 72.7 °F - 69.8 °F 91% 30.03 in 10.0 mi Calm Calm - N/A   Clear
10:58 PM 71.8 °F - 69.4 °F 92% 30.03 in 10.0 mi Calm Calm - N/A   Clear
11:58 PM 71.6 °F - 69.8 °F 94% 30.03 in 10.0 mi Calm Calm - N/A   Clear